Other Public Products
Issued by NWS Grand Forks, ND

Home | Current Version | Previous Version | Graphics & Text | Print | Product List | Glossary On
Versions: 1 2 3 4 5 6 7 8 9 10 11 12 13 14 15 16 17 18 19 20 21 22 23 24 25 26 27 28 29 30 31 32 33 34 35 36 37 38 39 40 41 42 43 44 45 46 47 48 49 50
000
FPUS83 KFGF 211931
OPUFGF
PRAIRIE TO PINES WEATHER ROUNDUP
NATIONAL WEATHER SERVICE EASTERN NORTH DAKOTA/GRAND FORKS ND
200 PM CDT SAT APR 21 2018

 **SATELLITE DATA USED TO AUGMENT SKY COVER AT AUTOMATED STATIONS**
 *****  WEATHER ACROSS EASTERN NORTH DAKOTA  *****

CITY           SKY/WX    TMP DP  RH WIND       PRES   REMARKS
GRAND FORKS    FAIR      57  45  64 S16       30.28F
GRND FORKS AFB FAIR      58  45  62 S15       30.28F
GRND FORKS NWS   N/A     58  43  57 SW14      30.26F
BUXTON           N/A     56  48  73 S9          N/A
DEVILS LAKE    FAIR      58  40  51 S17       30.23F
FARGO          FAIR      59  41  51 S10G16    30.30F
WAHPETON ARPT  FAIR      57  36  44 SW12      30.33S
$$

 *****  WEATHER ACROSS CENTRAL AND WESTERN NORTH DAKOTA  *****

CITY           SKY/WX    TMP DP  RH WIND       PRES   REMARKS
JAMESTOWN      FAIR      58  41  53 S15G26    30.25F
BISMARCK       FAIR      63  34  33 S28G37    30.20F
MINOT          FAIR      61  40  45 S23G33    30.13F
MINOT AFB      FAIR      61  42  50 S23G33    30.11F
GARRISON         N/A     58  40  51 S22       30.14F
WILLISTON      FAIR      65  39  38 S15G24    30.03F
DICKINSON      FAIR      62  37  39 S22G33    30.09F
HETTINGER      PTSUNNY   55  35  47 S22G31    30.16F
$$

 *****  OTHER OBSERVATIONS NORTHEAST NORTH DAKOTA  *****

CITY           SKY/WX    TMP DP  RH WIND       PRES   REMARKS
WALHALLA       FAIR      63  43  48 SW14G21   30.22F
LANGDON        FAIR      61  45  55 S23       30.22F
CAVALIER         N/A     63  43  48 S16       30.22F
GRAFTON        FAIR      63  43  48 S17       30.27F
CANDO          FAIR      61  41  48 S18G26    30.22F
FORT TOTTEN      N/A     59  39  48 S13       29.95S
ROLLA          FAIR      55  45  67 S22G32    30.18F
RUGBY          FAIR      59  41  51 S21G28    30.17F
 ***** THE ABOVE OBSERVATIONS ARE NON NWS ARE NOT QUALITY
        CONTROLLED AND MAY MIS-REPORT RAIN FOR SNOW...
$$

 *****  OTHER OBSERVATIONS SOUTHEAST NORTH DAKOTA *****

CITY           SKY/WX    TMP DP  RH WIND       PRES   REMARKS
COOPERSTOWN    FAIR      57  48  72 S14G23    30.27F
VALLEY CITY    FAIR      57  45  62 SW15      30.29F
OAKES            N/A     57  39  51 S13G21    30.29F
GWINNER          N/A     59  41  51 S9        30.29F
SHEYENNE NWR     N/A     59  40  49 S8        29.95S
BUFFALO          N/A     57  37  47 E6          N/A
WYNDMERE       NOT AVBL
 ***** THE ABOVE OBSERVATIONS ARE NON NWS ARE NOT QUALITY
       CONTROLLED AND MAY MIS-REPORT RAIN FOR SNOW...
$$

  *****  WEATHER ACROSS NORTHERN MINNESOTA  *****

CITY           SKY/WX    TMP DP  RH WIND       PRES   REMARKS
FLAG ISLAND    FAIR      50  28  43 SE9       30.28F
WARROAD        FAIR      59  39  47 SW12      30.29F
ROSEAU         FAIR      59  43  55 SW10G16   30.28F
HALLOCK        FAIR      61  48  63 S16G22    30.25F
THF RVR FALLS  FAIR      56  40  55 S12G17    30.31F
HALSTAD        NOT AVBL
FOSSTON        FAIR      57  36  44 SW10      30.31F
BAUDETTE       FAIR      58  27  30 S8G17     30.30F
WASKISH        CLOUDY    55  28  35 W8        30.31F
CROOKSTON      FAIR      57  41  54 SW15G21   30.30F
$$
  *****  WEATHER ACROSS CENTRAL AND WEST MINNESOTA  *****

CITY           SKY/WX    TMP DP  RH WIND       PRES   REMARKS
BEMIDJI        FAIR      57  32  39 SW5       30.31F
PARK RAPIDS    FAIR      56  32  40 S6        30.32F
WADENA         FAIR      57  32  38 S8        30.33S
DETROIT LAKES  FAIR      57  30  35 SW9       30.33F
MOORHEAD       FAIR      57  39  51 S12G17    30.32F
FERGUS FALLS   FAIR      57  36  44 S8        30.31S
ELBOW LAKE     FAIR      57  37  46 S12G17    30.35R
MORRIS MN      FAIR      55  36  47 S14       30.35S
STAPLES        FAIR      54  27  35 S3        30.34F
WHEATON        FAIR      55  37  50 S10G17    30.35F
$$
  *****  WEATHER ELSEWHERE ACROSS MINNESOTA  *****

CITY           SKY/WX    TMP DP  RH WIND       PRES   REMARKS
DULUTH         FAIR      54  22  28 SW12      30.35F
INTRNTL FALLS  FAIR      58  24  27 S8        30.31F
ELY            FAIR      57  18  21 S3        30.31F
CLOQUET        FAIR      55   9  15 CALM      30.35F
BRAINERD       FAIR      56  27  32 MISG      30.35F
HIBBING        FAIR      55  21  26 VRB3      30.33F
ALEXANDRIA     FAIR      57  31  37 S8        30.35F
SAINT CLOUD    FAIR      53  29  39 SE5       30.36F
MINNEAPOLIS    FAIR      57  19  22 NW5       30.37F
$$

  *****  WEATHER ACROSS SOUTH DAKOTA  *****

CITY           SKY/WX    TMP DP  RH WIND       PRES   REMARKS
SIOUX FALLS    CLOUDY    48  34  58 E7        30.33F
BROOKINGS      CLOUDY    50  35  56 SE8       30.34F
WATERTOWN      CLOUDY    53  36  52 S14       30.33F
HURON          CLOUDY    45  35  68 MISG      30.33F
SISSETON         N/A     58  40  51 S13       30.32F
ABERDEEN       FAIR      59  38  45 S13       30.31F
MITCHELL       CLOUDY    44  37  76 N6        30.34F
PIERRE         CLOUDY    48  42  80 SE12      30.28F
MOBRIDGE       FAIR      58  40  51 S17       30.23F
RAPID CITY     PTSUNNY   53  38  56 SE20G28   30.17F
$$

  *****  SOME WEATHER IN NEARBY STATES *****

CITY           SKY/WX    TMP DP  RH WIND       PRES   REMARKS
GLASGOW MT     FAIR      68  39  34 S13G21    29.94F
GREAT FALLS MT FAIR      63  30  28 W29G41    29.96F
CHEYENNE WY    CLOUDY    38  32  79 NE5       30.16S
SCOTTSBLUFF NE LGT RAIN  39  39 100 SE6       30.20F
OMAHA NE       CLOUDY    54  29  38 NE3       30.27F
DES MOINES IA  CLOUDY    57  25  29 E10       30.31F
DAVENPORT IA   FAIR      56  29  35 E14       30.38F
CHICAGO IL     CLOUDY    52  26  36 N6        30.42R
EAU CLAIRE WI  FAIR      57  30  35 W6        30.36F
LA CROSSE WI   CLOUDY    55  34  45 S13       30.40F
$$

  *****  SOME NATIONAL WEATHER *****

CITY           SKY/WX    TMP DP  RH WIND       PRES   REMARKS
LA GUARDIA NY  FAIR      60  22  23 NW12      30.29F
RALEIGH NC     FAIR      67  38  34 CALM      30.37F
ATLANTA GA     PTSUNNY   70  41  34 SE10G17   30.28F
NEW ORLEANS LA PTSUNNY   77  58  51 SE13      30.11F
OKLAHOMA CITY  LGT RAIN  48  47  96 N9        30.03S FOG
ALBUQUERQUE NM FAIR      55  30  38 CALM      30.14F
SALT LAKE CITY FAIR      65  29  25 N7        30.19S
LOS ANGELES CA FAIR      71  51  49 W13       30.04F
BOISE ID       FAIR      66  34  30 NW14G20   30.18F
SEATTLE WA     FAIR      53  37  54 SW12      30.39S
$$

*** WEATHER ACROSS MANITOBA...SASKATCHEWAN AND ONTARIO ***
                ***ONTARIO***

CITY           SKY/WX    TMP DP  RH WIND       PRES   REMARKS
GERALDTON      MOSUNNY   57  12  17 NW7       30.32F
THUNDER BAY    SUNNY     52  34  50 E12       30.34F
SIOUX LOOKOUT  MOSUNNY   55  25  30 SW8       30.29F
TORONTO        PTSUNNY   55  19  24 W6        30.40F
BIG TROUT LK   SUNNY     54  21  28 S6        30.22F
PICKLE LAKE    MOSUNNY   57  19  23 SW7       30.27S
DRYDEN         MOSUNNY   57  27  30 SW10      30.29F
KENORA         MOSUNNY   54  28  37 S12G21    30.30F
$$
                *** MANITOBA***

CITY           SKY/WX    TMP DP  RH WIND       PRES   REMARKS
BRANDON        MOSUNNY   59  43  55 SW21G30   30.13F
DAUPHIN        PTSUNNY   63  41  45 S20G25    30.08F
ISLAND LAKE    MOSUNNY   61  30  31 SW13      30.17F
PILOT MOUND      N/A     59  41  51 SW23G31     N/A
THE PAS        MOSUNNY   50  32  50 SE18      29.98F
THOMPSON       PTSUNNY   59  30  33 S10G18    30.03F
WINNIPEG       MOSUNNY   63  43  48 S17G24    30.21F
LYNN LAKE      MOSUNNY   54  34  47 SE8       29.96F
CHURCHILL      MOSUNNY   52  32  46 W12       29.99R
GILLAM         MOSUNNY   59  30  33 S17       30.06F
$$
                ***SASKATCHEWAN***

CITY           SKY/WX    TMP DP  RH WIND       PRES   REMARKS
ESTEVAN        MOSUNNY   63  41  45 S18G29    30.03F
KINDERSLEY     CLOUDY    55  39  54 SW14G24   29.76F
LLOYDMINSTER   LGT RAIN  43  41  93 SE10      29.72F
PRINCE ALBERT  CLOUDY    43  36  75 E9        29.88F
REGINA         PTSUNNY   63  46  55 SE16G23   29.94F
YORKTON        SUNNY     48  39  71 SE10      30.02F



USA.gov is the U.S. government's official web portal to all federal, state and local government web resources and services.